This is the latest recevied weather packets stored in our database for station/object KK4KTV-13. If no packets are shown the sender has not sent any weather packets the latest 10 day(s).
| Time | Temp. | Humidity | Pressure | Rain* | Wind** | Luminosity | Snow |
|---|---|---|---|---|---|---|---|
| 1777641772 | 9.44° C | 99% | 1013.4 hPa | 0 mm | - | 381 W/m² | - |
| 1777641471 | 10° C | 99% | 1013.5 hPa | 0 mm | - | 355 W/m² | - |
| 1777641167 | 9.44° C | 99% | 1013.3 hPa | 0 mm | - | 311 W/m² | - |
| 1777640863 | 8.89° C | 99% | 1013.4 hPa | 0 mm | - | 270 W/m² | - |
| 1777640561 | 8.89° C | 99% | 1013.5 hPa | 0 mm | - | 235 W/m² | - |
| 1777640257 | 7.78° C | 99% | 1013.4 hPa | 0 mm | - | 202 W/m² | - |
| 1777639953 | 8.33° C | 99% | 1013.7 hPa | 0 mm | - | 177 W/m² | - |
| 1777639651 | 7.78° C | 99% | 1013.7 hPa | 0 mm | - | 158 W/m² | - |
| 1777639348 | 7.22° C | 99% | 1013.5 hPa | 0 mm | - | 138 W/m² | - |
| 1777639043 | 6.67° C | 99% | 1013.7 hPa | 0 mm | - | 121 W/m² | - |
| 1777638740 | 6.67° C | 99% | 1013.6 hPa | 0 mm | - | 108 W/m² | - |
| 1777638436 | 6.11° C | 99% | 1013.6 hPa | 0 mm | - | 96 W/m² | - |
| 1777638134 | 6.11° C | 99% | 1013.7 hPa | 0 mm | - | 86 W/m² | - |
| 1777637824 | 6.11° C | 99% | 1013.4 hPa | 0 mm | - | 78 W/m² | - |
| 1777637520 | 5° C | 99% | 1013.6 hPa | 0 mm | - | 73 W/m² | - |
| 1777637218 | 5° C | 99% | 1013.6 hPa | 0 mm | - | 67 W/m² | - |
| 1777636915 | 5° C | 99% | 1013.8 hPa | 0 mm | - | 63 W/m² | - |
| 1777636610 | 4.44° C | 99% | 1013.6 hPa | 0 mm | - | 57 W/m² | - |
| 1777636306 | 3.33° C | 99% | 1013.4 hPa | 0 mm | - | 50 W/m² | - |
| 1777636001 | 3.33° C | 99% | 1013.4 hPa | 0 mm | - | 49 W/m² | - |
| 1777635697 | 2.78° C | 99% | 1013.2 hPa | 0 mm | - | 47 W/m² | - |
| 1777635394 | 2.22° C | 99% | 1013.2 hPa | 0 mm | - | 42 W/m² | - |
| 1777635091 | 2.22° C | 99% | 1013 hPa | 0 mm | - | 34 W/m² | - |
| 1777634787 | 1.67° C | 99% | 1013 hPa | 0 mm | - | 33 W/m² | - |
| 1777634484 | 1.67° C | 99% | 1013.1 hPa | 0 mm | - | 27 W/m² | - |
* Rain latest hour (hover to see other rain measurements)
** Current wind speed in m/s (hover to see current wind gust speed)